Regional Weather Roundup
Issued by NWS

Home | Current Version | Previous Version | Text Only | Print | Product List | Glossary Off
Versions: 1 2 3 4 5 6 7 8 9 10 11 12 13 14 15 16 17 18 19 20 21 22 23 24 25 26 27 28 29 30 31 32 33 34 35 36 37 38 39 40 41 42 43 44 45 46 47 48 49 50

000
ASUS43 KFSD 191702
RWRSD

WEATHER ROUNDUP FOR SOUTH DAKOTA
NATIONAL WEATHER SERVICE SIOUX FALLS SD
1200 PM CDT SAT AUG 19 2017

NOTE: "FAIR" INDICATES FEW OR NO CLOUDS BELOW 12,000 FEET WITH NO
SIGNIFICANT WEATHER AND/OR OBSTRUCTIONS TO VISIBILITY.


SDZ001>005-009-010-012>017-191800-
NORTHWEST AND NORTH CENTRAL SOUTH DAKOTA

CITY           SKY/WX    TMP DP  RH WIND       PRES   REMARKS
BUFFALO          N/A     85  40  20 NW16      29.79F
FAITH            N/A     82  54  37 CALM      29.83F
MOBRIDGE       SUNNY     79  63  57 S9        29.80F
$$

SDZ012>016-024>037-041>051-057-063-072>074-191800-
SOUTHWEST AND SOUTH CENTRAL SOUTH DAKOTA

CITY           SKY/WX    TMP DP  RH WIND       PRES   REMARKS
RAPID CTY ARPT SUNNY     85  56  37 CALM      29.87S
PIERRE         SUNNY     84  58  40 S14       29.81F
CUSTER         SUNNY     83  35  18 VRB7      30.05S
ELLSWORTH AFB  SUNNY     87  50  28 N3        29.87S
PHILIP         SUNNY     88  54  31 W5        29.81F
PINE RIDGE     SUNNY     84  54  35 SW8       29.90F
SPEARFISH      FAIR      88  45  22 N12       29.93S
WINNER         FAIR      83  60  45 S22G28    29.86F
$$

SDZ004>011-016>023-039-040-191800-
NORTHEAST SOUTH DAKOTA

CITY           SKY/WX    TMP DP  RH WIND       PRES   REMARKS
ABERDEEN       SUNNY     76  63  64 S16       29.88F
WATERTOWN      SUNNY     73  62  68 S9        29.93F
BROOKINGS      SUNNY     72  63  73 S10       29.96F
SISSETON         N/A     78  63  59 S13       29.89S
$$

SDZ017-020-022-023-036>040-048>070-191800-
SOUTHEAST SOUTH DAKOTA

CITY           SKY/WX    TMP DP  RH WIND       PRES   REMARKS
SIOUX FALLS    SUNNY     74  64  71 SE7       29.96S
HURON          SUNNY     75  61  61 SE15      29.90F
CHAMBERLAIN    SUNNY     81  61  50 SE17      29.87F
MITCHELL       SUNNY     76  62  62 S13       29.92F
$$

ABBREVIATIONS USED IN REMARKS
   TC - TEMPERATURE IN CELSIUS
  WCI - WIND CHILL INDEX
   HX - HEAT INDEX
  VSB - VISIBILITY





USA.gov is the U.S. government's official web portal to all federal, state and local government web resources and services.